owner,sensor,date,latitude,longitude,vertical_datum,sea_water_practical_salinity,qcFlag 
ENP,ioos.station.NOAA.NDBC:LMRF1:1,2017-10-01T04:00:00Z,25.5560,-81.1690,1.5,0.56,1111122 
ENP,ioos.station.NOAA.NDBC:LMRF1:1,2017-10-01T05:00:00Z,25.5560,-81.1690,1.5,0.58,1111122 
ENP,ioos.station.NOAA.NDBC:LMRF1:1,2017-10-01T07:00:00Z,25.5560,-81.1690,1.5,0.58,1111122 
ENP,ioos.station.NOAA.NDBC:LMRF1:1,2017-10-01T08:00:00Z,25.5560,-81.1690,1.5,0.61,1111122 
ENP,ioos.station.NOAA.NDBC:LMRF1:1,2017-10-01T09:00:00Z,25.5560,-81.1690,1.5,0.61,1111122 
ENP,ioos.station.NOAA.NDBC:LMRF1:1,2017-10-01T12:00:00Z,25.5560,-81.1690,1.5,0.66,1111122 
ENP,ioos.station.NOAA.NDBC:LMRF1:1,2017-10-01T13:00:00Z,25.5560,-81.1690,1.5,0.65,1111122 
ENP,ioos.station.NOAA.NDBC:LMRF1:1,2017-10-01T14:00:00Z,25.5560,-81.1690,1.5,0.63,1111122 
ENP,ioos.station.NOAA.NDBC:LMRF1:1,2017-10-01T15:00:00Z,25.5560,-81.1690,1.5,0.53,1111122 
ENP,ioos.station.NOAA.NDBC:LMRF1:1,2017-10-01T16:00:00Z,25.5560,-81.1690,1.5,0.64,1111122 
ENP,ioos.station.NOAA.NDBC:LMRF1:1,2017-10-01T17:00:00Z,25.5560,-81.1690,1.5,1.53,1111122 
ENP,ioos.station.NOAA.NDBC:LMRF1:1,2017-10-01T18:00:00Z,25.5560,-81.1690,1.5,1.76,1111122 
ENP,ioos.station.NOAA.NDBC:LMRF1:1,2017-10-01T19:00:00Z,25.5560,-81.1690,1.5,1.2,1111122 
ENP,ioos.station.NOAA.NDBC:LMRF1:1,2017-10-01T20:00:00Z,25.5560,-81.1690,1.5,0.89,1111122 
ENP,ioos.station.NOAA.NDBC:LMRF1:1,2017-10-01T21:00:00Z,25.5560,-81.1690,1.5,0.73,1111122 
ENP,ioos.station.NOAA.NDBC:LMRF1:1,2017-10-01T22:00:00Z,25.5560,-81.1690,1.5,0.72,1111122 
ENP,ioos.station.NOAA.NDBC:LMRF1:1,2017-10-01T23:00:00Z,25.5560,-81.1690,1.5,0.73,1111122 
ENP,ioos.station.NOAA.NDBC:LMRF1:1,2017-10-02T00:00:00Z,25.5560,-81.1690,1.5,0.74,1111122 
ENP,ioos.station.NOAA.NDBC:LMRF1:1,2017-10-02T01:00:00Z,25.5560,-81.1690,1.5,0.71,1111122 
ENP,ioos.station.NOAA.NDBC:LMRF1:1,2017-10-02T03:00:00Z,25.5560,-81.1690,1.5,0.64,1111122 
ENP,ioos.station.NOAA.NDBC:LMRF1:1,2017-10-02T04:00:00Z,25.5560,-81.1690,1.5,0.64,1111122 
ENP,ioos.station.NOAA.NDBC:LMRF1:1,2017-10-02T05:00:00Z,25.5560,-81.1690,1.5,0.67,1111122 
ENP,ioos.station.NOAA.NDBC:LMRF1:1,2017-10-02T07:00:00Z,25.5560,-81.1690,1.5,1.79,1111122 
ENP,ioos.station.NOAA.NDBC:LMRF1:1,2017-10-02T08:00:00Z,25.5560,-81.1690,1.5,0.82,1111122 
ENP,ioos.station.NOAA.NDBC:LMRF1:1,2017-10-02T09:00:00Z,25.5560,-81.1690,1.5,0.66,1111122 
ENP,ioos.station.NOAA.NDBC:LMRF1:1,2017-10-02T10:00:00Z,25.5560,-81.1690,1.5,0.64,1111122 
ENP,ioos.station.NOAA.NDBC:LMRF1:1,2017-10-02T12:00:00Z,25.5560,-81.1690,1.5,0.65,1111122 
ENP,ioos.station.NOAA.NDBC:LMRF1:1,2017-10-02T13:00:00Z,25.5560,-81.1690,1.5,0.65,1111122 
ENP,ioos.station.NOAA.NDBC:LMRF1:1,2017-10-02T14:00:00Z,25.5560,-81.1690,1.5,0.64,1111122 
ENP,ioos.station.NOAA.NDBC:LMRF1:1,2017-10-02T15:00:00Z,25.5560,-81.1690,1.5,0.59,1111122 
ENP,ioos.station.NOAA.NDBC:LMRF1:1,2017-10-02T16:00:00Z,25.5560,-81.1690,1.5,0.96,1111122 
ENP,ioos.station.NOAA.NDBC:LMRF1:1,2017-10-02T17:00:00Z,25.5560,-81.1690,1.5,10.68,1111122 
ENP,ioos.station.NOAA.NDBC:LMRF1:1,2017-10-02T18:00:00Z,25.5560,-81.1690,1.5,11.58,1111122 
ENP,ioos.station.NOAA.NDBC:LMRF1:1,2017-10-02T19:00:00Z,25.5560,-81.1690,1.5,3.64,1111122 
ENP,ioos.station.NOAA.NDBC:LMRF1:1,2017-10-02T20:00:00Z,25.5560,-81.1690,1.5,3.11,1111122 
ENP,ioos.station.NOAA.NDBC:LMRF1:1,2017-10-02T21:00:00Z,25.5560,-81.1690,1.5,1.7,1111122 
ENP,ioos.station.NOAA.NDBC:LMRF1:1,2017-10-02T22:00:00Z,25.5560,-81.1690,1.5,1.3,1111122 
ENP,ioos.station.NOAA.NDBC:LMRF1:1,2017-10-02T23:00:00Z,25.5560,-81.1690,1.5,1.2,1111122 
ENP,ioos.station.NOAA.NDBC:LMRF1:1,2017-10-03T00:00:00Z,25.5560,-81.1690,1.5,1.06,1111122 
ENP,ioos.station.NOAA.NDBC:LMRF1:1,2017-10-03T01:00:00Z,25.5560,-81.1690,1.5,0.99,1111122 
ENP,ioos.station.NOAA.NDBC:LMRF1:1,2017-10-03T03:00:00Z,25.5560,-81.1690,1.5,0.82,1111122 
ENP,ioos.station.NOAA.NDBC:LMRF1:1,2017-10-03T04:00:00Z,25.5560,-81.1690,1.5,0.75,1111122 
ENP,ioos.station.NOAA.NDBC:LMRF1:1,2017-10-03T05:00:00Z,25.5560,-81.1690,1.5,0.66,1111122 
ENP,ioos.station.NOAA.NDBC:LMRF1:1,2017-10-03T07:00:00Z,25.5560,-81.1690,1.5,0.65,1111122 
ENP,ioos.station.NOAA.NDBC:LMRF1:1,2017-10-03T08:00:00Z,25.5560,-81.1690,1.5,0.61,1111122 
ENP,ioos.station.NOAA.NDBC:LMRF1:1,2017-10-03T09:00:00Z,25.5560,-81.1690,1.5,0.62,1111122 
ENP,ioos.station.NOAA.NDBC:LMRF1:1,2017-10-03T12:00:00Z,25.5560,-81.1690,1.5,0.68,1111122 
ENP,ioos.station.NOAA.NDBC:LMRF1:1,2017-10-03T13:00:00Z,25.5560,-81.1690,1.5,0.67,1111122 
ENP,ioos.station.NOAA.NDBC:LMRF1:1,2017-10-03T14:00:00Z,25.5560,-81.1690,1.5,0.66,1111122 
ENP,ioos.station.NOAA.NDBC:LMRF1:1,2017-10-03T15:00:00Z,25.5560,-81.1690,1.5,0.63,1111122 
ENP,ioos.station.NOAA.NDBC:LMRF1:1,2017-10-03T16:00:00Z,25.5560,-81.1690,1.5,0.58,1111122 
ENP,ioos.station.NOAA.NDBC:LMRF1:1,2017-10-03T17:00:00Z,25.5560,-81.1690,1.5,0.61,1111122 
ENP,ioos.station.NOAA.NDBC:LMRF1:1,2017-10-03T18:00:00Z,25.5560,-81.1690,1.5,8.22,1111122 
ENP,ioos.station.NOAA.NDBC:LMRF1:1,2017-10-03T19:00:00Z,25.5560,-81.1690,1.5,9.15,1111122 
ENP,ioos.station.NOAA.NDBC:LMRF1:1,2017-10-03T20:00:00Z,25.5560,-81.1690,1.5,2.88,1111122 
ENP,ioos.station.NOAA.NDBC:LMRF1:1,2017-10-03T21:00:00Z,25.5560,-81.1690,1.5,1.56,1111122 
ENP,ioos.station.NOAA.NDBC:LMRF1:1,2017-10-03T22:00:00Z,25.5560,-81.1690,1.5,1.18,1111122 
ENP,ioos.station.NOAA.NDBC:LMRF1:1,2017-10-03T23:00:00Z,25.5560,-81.1690,1.5,1.01,1111122 
ENP,ioos.station.NOAA.NDBC:LMRF1:1,2017-10-04T00:00:00Z,25.5560,-81.1690,1.5,0.91,1111122 
ENP,ioos.station.NOAA.NDBC:LMRF1:1,2017-10-04T01:00:00Z,25.5560,-81.1690,1.5,0.84,1111122 
ENP,ioos.station.NOAA.NDBC:LMRF1:1,2017-10-04T03:00:00Z,25.5560,-81.1690,1.5,0.74,1111122 
ENP,ioos.station.NOAA.NDBC:LMRF1:1,2017-10-04T04:00:00Z,25.5560,-81.1690,1.5,0.7,1111122 
ENP,ioos.station.NOAA.NDBC:LMRF1:1,2017-10-04T06:00:00Z,25.5560,-81.1690,1.5,0.62,1111122 
ENP,ioos.station.NOAA.NDBC:LMRF1:1,2017-10-04T07:00:00Z,25.5560,-81.1690,1.5,0.65,1111122 
ENP,ioos.station.NOAA.NDBC:LMRF1:1,2017-10-04T08:00:00Z,25.5560,-81.1690,1.5,0.58,1111122 
ENP,ioos.station.NOAA.NDBC:LMRF1:1,2017-10-04T10:00:00Z,25.5560,-81.1690,1.5,0.55,1111122 
ENP,ioos.station.NOAA.NDBC:LMRF1:1,2017-10-04T11:00:00Z,25.5560,-81.1690,1.5,0.55,1111122 
ENP,ioos.station.NOAA.NDBC:LMRF1:1,2017-10-04T13:00:00Z,25.5560,-81.1690,1.5,0.59,1111122 
ENP,ioos.station.NOAA.NDBC:LMRF1:1,2017-10-04T14:00:00Z,25.5560,-81.1690,1.5,0.6,1111122 
ENP,ioos.station.NOAA.NDBC:LMRF1:1,2017-10-04T15:00:00Z,25.5560,-81.1690,1.5,0.6,1111122 
ENP,ioos.station.NOAA.NDBC:LMRF1:1,2017-10-04T16:00:00Z,25.5560,-81.1690,1.5,0.6,1111122 
ENP,ioos.station.NOAA.NDBC:LMRF1:1,2017-10-04T17:00:00Z,25.5560,-81.1690,1.5,0.56,1111122 
ENP,ioos.station.NOAA.NDBC:LMRF1:1,2017-10-04T18:00:00Z,25.5560,-81.1690,1.5,0.54,1111122 
ENP,ioos.station.NOAA.NDBC:LMRF1:1,2017-10-04T19:00:00Z,25.5560,-81.1690,1.5,0.56,1111122 
ENP,ioos.station.NOAA.NDBC:LMRF1:1,2017-10-04T20:00:00Z,25.5560,-81.1690,1.5,1.09,1111122 
ENP,ioos.station.NOAA.NDBC:LMRF1:1,2017-10-04T21:00:00Z,25.5560,-81.1690,1.5,0.82,1111122 
ENP,ioos.station.NOAA.NDBC:LMRF1:1,2017-10-04T22:00:00Z,25.5560,-81.1690,1.5,0.59,1111122 
ENP,ioos.station.NOAA.NDBC:LMRF1:1,2017-10-04T23:00:00Z,25.5560,-81.1690,1.5,0.56,1111122 
ENP,ioos.station.NOAA.NDBC:LMRF1:1,2017-10-05T00:00:00Z,25.5560,-81.1690,1.5,0.56,1111122 
ENP,ioos.station.NOAA.NDBC:LMRF1:1,2017-10-05T01:00:00Z,25.5560,-81.1690,1.5,0.57,1111122 
ENP,ioos.station.NOAA.NDBC:LMRF1:1,2017-10-05T03:00:00Z,25.5560,-81.1690,1.5,0.59,1111122 
ENP,ioos.station.NOAA.NDBC:LMRF1:1,2017-10-05T04:00:00Z,25.5560,-81.1690,1.5,0.59,1111122 
ENP,ioos.station.NOAA.NDBC:LMRF1:1,2017-10-05T17:00:00Z,25.5560,-81.1690,1.5,0.71,1111122 
ENP,ioos.station.NOAA.NDBC:LMRF1:1,2017-10-05T18:00:00Z,25.5560,-81.1690,1.5,0.83,1111122 
ENP,ioos.station.NOAA.NDBC:LMRF1:1,2017-10-05T19:00:00Z,25.5560,-81.1690,1.5,6.7,1111122 
ENP,ioos.station.NOAA.NDBC:LMRF1:1,2017-10-05T20:00:00Z,25.5560,-81.1690,1.5,11.71,1111122 
ENP,ioos.station.NOAA.NDBC:LMRF1:1,2017-10-05T21:00:00Z,25.5560,-81.1690,1.5,13.94,1111122 
ENP,ioos.station.NOAA.NDBC:LMRF1:1,2017-10-05T22:00:00Z,25.5560,-81.1690,1.5,6.77,1111122 
ENP,ioos.station.NOAA.NDBC:LMRF1:1,2017-10-05T23:00:00Z,25.5560,-81.1690,1.5,4.43,1111122 
ENP,ioos.station.NOAA.NDBC:LMRF1:1,2017-10-06T00:00:00Z,25.5560,-81.1690,1.5,3.82,1111122 
ENP,ioos.station.NOAA.NDBC:LMRF1:1,2017-10-06T01:00:00Z,25.5560,-81.1690,1.5,3.02,1111122 
ENP,ioos.station.NOAA.NDBC:LMRF1:1,2017-10-06T03:00:00Z,25.5560,-81.1690,1.5,1.63,1111122 
ENP,ioos.station.NOAA.NDBC:LMRF1:1,2017-10-06T04:00:00Z,25.5560,-81.1690,1.5,1.48,1111122 
ENP,ioos.station.NOAA.NDBC:LMRF1:1,2017-10-06T06:00:00Z,25.5560,-81.1690,1.5,3.08,1111122 
ENP,ioos.station.NOAA.NDBC:LMRF1:1,2017-10-06T07:00:00Z,25.5560,-81.1690,1.5,13.74,1111122 
ENP,ioos.station.NOAA.NDBC:LMRF1:1,2017-10-06T09:00:00Z,25.5560,-81.1690,1.5,19.04,1111122 
ENP,ioos.station.NOAA.NDBC:LMRF1:1,2017-10-06T10:00:00Z,25.5560,-81.1690,1.5,10.94,1111122 
ENP,ioos.station.NOAA.NDBC:LMRF1:1,2017-10-06T12:00:00Z,25.5560,-81.1690,1.5,8.36,1111122 
ENP,ioos.station.NOAA.NDBC:LMRF1:1,2017-10-06T13:00:00Z,25.5560,-81.1690,1.5,6.9,1111122 
ENP,ioos.station.NOAA.NDBC:LMRF1:1,2017-10-06T14:00:00Z,25.5560,-81.1690,1.5,5.43,1111122 
ENP,ioos.station.NOAA.NDBC:LMRF1:1,2017-10-06T15:00:00Z,25.5560,-81.1690,1.5,3.67,1111122 
ENP,ioos.station.NOAA.NDBC:LMRF1:1,2017-10-06T16:00:00Z,25.5560,-81.1690,1.5,3.24,1111122 
ENP,ioos.station.NOAA.NDBC:LMRF1:1,2017-10-06T17:00:00Z,25.5560,-81.1690,1.5,3.19,1111122 
ENP,ioos.station.NOAA.NDBC:LMRF1:1,2017-10-06T18:00:00Z,25.5560,-81.1690,1.5,3.74,1111122 
ENP,ioos.station.NOAA.NDBC:LMRF1:1,2017-10-06T19:00:00Z,25.5560,-81.1690,1.5,8.96,1111122 
ENP,ioos.station.NOAA.NDBC:LMRF1:1,2017-10-06T20:00:00Z,25.5560,-81.1690,1.5,15.8,1111122 
ENP,ioos.station.NOAA.NDBC:LMRF1:1,2017-10-06T21:00:00Z,25.5560,-81.1690,1.5,18.36,1111122 
ENP,ioos.station.NOAA.NDBC:LMRF1:1,2017-10-06T22:00:00Z,25.5560,-81.1690,1.5,17.21,1111122 
ENP,ioos.station.NOAA.NDBC:LMRF1:1,2017-10-06T23:00:00Z,25.5560,-81.1690,1.5,11.97,1111122 
ENP,ioos.station.NOAA.NDBC:LMRF1:1,2017-10-07T00:00:00Z,25.5560,-81.1690,1.5,8.64,1111122 
ENP,ioos.station.NOAA.NDBC:LMRF1:1,2017-10-07T01:00:00Z,25.5560,-81.1690,1.5,8.05,1111122 
ENP,ioos.station.NOAA.NDBC:LMRF1:1,2017-10-07T03:00:00Z,25.5560,-81.1690,1.5,4.9,1111122 
ENP,ioos.station.NOAA.NDBC:LMRF1:1,2017-10-07T04:00:00Z,25.5560,-81.1690,1.5,4.24,1111122 
ENP,ioos.station.NOAA.NDBC:LMRF1:1,2017-10-07T06:00:00Z,25.5560,-81.1690,1.5,5.16,1111122 
ENP,ioos.station.NOAA.NDBC:LMRF1:1,2017-10-07T07:00:00Z,25.5560,-81.1690,1.5,10.94,1111122 
ENP,ioos.station.NOAA.NDBC:LMRF1:1,2017-10-07T08:00:00Z,25.5560,-81.1690,1.5,15.4,1111122 
ENP,ioos.station.NOAA.NDBC:LMRF1:1,2017-10-07T09:00:00Z,25.5560,-81.1690,1.5,17.68,1111122 
ENP,ioos.station.NOAA.NDBC:LMRF1:1,2017-10-07T11:00:00Z,25.5560,-81.1690,1.5,10.94,1111122 
ENP,ioos.station.NOAA.NDBC:LMRF1:1,2017-10-07T12:00:00Z,25.5560,-81.1690,1.5,9.72,1111122 
ENP,ioos.station.NOAA.NDBC:LMRF1:1,2017-10-07T13:00:00Z,25.5560,-81.1690,1.5,8.64,1111122 
ENP,ioos.station.NOAA.NDBC:LMRF1:1,2017-10-07T14:00:00Z,25.5560,-81.1690,1.5,6.75,1111122 
ENP,ioos.station.NOAA.NDBC:LMRF1:1,2017-10-07T15:00:00Z,25.5560,-81.1690,1.5,5.25,1111122 
ENP,ioos.station.NOAA.NDBC:LMRF1:1,2017-10-07T16:00:00Z,25.5560,-81.1690,1.5,4.66,1111122 
ENP,ioos.station.NOAA.NDBC:LMRF1:1,2017-10-07T17:00:00Z,25.5560,-81.1690,1.5,4.23,1111122 
ENP,ioos.station.NOAA.NDBC:LMRF1:1,2017-10-07T18:00:00Z,25.5560,-81.1690,1.5,4.35,1111122 
ENP,ioos.station.NOAA.NDBC:LMRF1:1,2017-10-07T19:00:00Z,25.5560,-81.1690,1.5,6.56,1111122 
ENP,ioos.station.NOAA.NDBC:LMRF1:1,2017-10-07T20:00:00Z,25.5560,-81.1690,1.5,15.73,1111122 
ENP,ioos.station.NOAA.NDBC:LMRF1:1,2017-10-07T21:00:00Z,25.5560,-81.1690,1.5,18.63,1111122 
ENP,ioos.station.NOAA.NDBC:LMRF1:1,2017-10-07T22:00:00Z,25.5560,-81.1690,1.5,19.52,1111122 
ENP,ioos.station.NOAA.NDBC:LMRF1:1,2017-10-07T23:00:00Z,25.5560,-81.1690,1.5,18.76,1111122 
ENP,ioos.station.NOAA.NDBC:LMRF1:1,2017-10-08T00:00:00Z,25.5560,-81.1690,1.5,15.73,1111122 
ENP,ioos.station.NOAA.NDBC:LMRF1:1,2017-10-08T01:00:00Z,25.5560,-81.1690,1.5,12.17,1111122 
ENP,ioos.station.NOAA.NDBC:LMRF1:1,2017-10-08T03:00:00Z,25.5560,-81.1690,1.5,9.53,1111122 
ENP,ioos.station.NOAA.NDBC:LMRF1:1,2017-10-08T04:00:00Z,25.5560,-81.1690,1.5,7.67,1111122 
ENP,ioos.station.NOAA.NDBC:LMRF1:1,2017-10-08T05:00:00Z,25.5560,-81.1690,1.5,7.11,1111122 
ENP,ioos.station.NOAA.NDBC:LMRF1:1,2017-10-08T07:00:00Z,25.5560,-81.1690,1.5,10.68,1111122 
ENP,ioos.station.NOAA.NDBC:LMRF1:1,2017-10-08T08:00:00Z,25.5560,-81.1690,1.5,15.8,1111122 
ENP,ioos.station.NOAA.NDBC:LMRF1:1,2017-10-08T09:00:00Z,25.5560,-81.1690,1.5,18.09,1111122 
ENP,ioos.station.NOAA.NDBC:LMRF1:1,2017-10-08T11:00:00Z,25.5560,-81.1690,1.5,14.53,1111122 
ENP,ioos.station.NOAA.NDBC:LMRF1:1,2017-10-08T13:00:00Z,25.5560,-81.1690,1.5,11.19,1111122 
ENP,ioos.station.NOAA.NDBC:LMRF1:1,2017-10-08T14:00:00Z,25.5560,-81.1690,1.5,9.34,1111122 
ENP,ioos.station.NOAA.NDBC:LMRF1:1,2017-10-08T15:00:00Z,25.5560,-81.1690,1.5,7.18,1111122 
ENP,ioos.station.NOAA.NDBC:LMRF1:1,2017-10-08T16:00:00Z,25.5560,-81.1690,1.5,5.9,1111122 
ENP,ioos.station.NOAA.NDBC:LMRF1:1,2017-10-08T17:00:00Z,25.5560,-81.1690,1.5,5.37,1111122 
ENP,ioos.station.NOAA.NDBC:LMRF1:1,2017-10-08T18:00:00Z,25.5560,-81.1690,1.5,4.87,1111122 
ENP,ioos.station.NOAA.NDBC:LMRF1:1,2017-10-08T19:00:00Z,25.5560,-81.1690,1.5,4.81,1111122 
ENP,ioos.station.NOAA.NDBC:LMRF1:1,2017-10-08T20:00:00Z,25.5560,-81.1690,1.5,6.0,1111122 
ENP,ioos.station.NOAA.NDBC:LMRF1:1,2017-10-08T21:00:00Z,25.5560,-81.1690,1.5,10.29,1111122 
ENP,ioos.station.NOAA.NDBC:LMRF1:1,2017-10-08T22:00:00Z,25.5560,-81.1690,1.5,13.94,1111122 
ENP,ioos.station.NOAA.NDBC:LMRF1:1,2017-10-08T23:00:00Z,25.5560,-81.1690,1.5,15.13,1111122 
ENP,ioos.station.NOAA.NDBC:LMRF1:1,2017-10-09T00:00:00Z,25.5560,-81.1690,1.5,8.96,1111122 
ENP,ioos.station.NOAA.NDBC:LMRF1:1,2017-10-09T01:00:00Z,25.5560,-81.1690,1.5,6.74,1111122 
ENP,ioos.station.NOAA.NDBC:LMRF1:1,2017-10-09T03:00:00Z,25.5560,-81.1690,1.5,6.37,1111122 
ENP,ioos.station.NOAA.NDBC:LMRF1:1,2017-10-09T04:00:00Z,25.5560,-81.1690,1.5,5.31,1111122 
ENP,ioos.station.NOAA.NDBC:LMRF1:1,2017-10-09T05:00:00Z,25.5560,-81.1690,1.5,4.54,1111122 
ENP,ioos.station.NOAA.NDBC:LMRF1:1,2017-10-09T07:00:00Z,25.5560,-81.1690,1.5,4.17,1111122 
ENP,ioos.station.NOAA.NDBC:LMRF1:1,2017-10-09T08:00:00Z,25.5560,-81.1690,1.5,5.4,1111122 
ENP,ioos.station.NOAA.NDBC:LMRF1:1,2017-10-09T11:00:00Z,25.5560,-81.1690,1.5,8.83,1111122 
ENP,ioos.station.NOAA.NDBC:LMRF1:1,2017-10-09T12:00:00Z,25.5560,-81.1690,1.5,6.83,1111122 
ENP,ioos.station.NOAA.NDBC:LMRF1:1,2017-10-09T13:00:00Z,25.5560,-81.1690,1.5,5.76,1111122 
ENP,ioos.station.NOAA.NDBC:LMRF1:1,2017-10-09T14:00:00Z,25.5560,-81.1690,1.5,5.52,1111122 
ENP,ioos.station.NOAA.NDBC:LMRF1:1,2017-10-09T15:00:00Z,25.5560,-81.1690,1.5,4.69,1111122 
ENP,ioos.station.NOAA.NDBC:LMRF1:1,2017-10-09T16:00:00Z,25.5560,-81.1690,1.5,3.77,1111122 
ENP,ioos.station.NOAA.NDBC:LMRF1:1,2017-10-09T17:00:00Z,25.5560,-81.1690,1.5,3.26,1111122 
ENP,ioos.station.NOAA.NDBC:LMRF1:1,2017-10-09T19:00:00Z,25.5560,-81.1690,1.5,2.74,1111122 
ENP,ioos.station.NOAA.NDBC:LMRF1:1,2017-10-09T20:00:00Z,25.5560,-81.1690,1.5,2.56,1111122 
ENP,ioos.station.NOAA.NDBC:LMRF1:1,2017-10-09T21:00:00Z,25.5560,-81.1690,1.5,2.4,1111122 
ENP,ioos.station.NOAA.NDBC:LMRF1:1,2017-10-09T22:00:00Z,25.5560,-81.1690,1.5,2.57,1111122 
ENP,ioos.station.NOAA.NDBC:LMRF1:1,2017-10-09T23:00:00Z,25.5560,-81.1690,1.5,2.86,1111122 
ENP,ioos.station.NOAA.NDBC:LMRF1:1,2017-10-10T00:00:00Z,25.5560,-81.1690,1.5,3.09,1111122 
ENP,ioos.station.NOAA.NDBC:LMRF1:1,2017-10-10T01:00:00Z,25.5560,-81.1690,1.5,2.8,1111122 
ENP,ioos.station.NOAA.NDBC:LMRF1:1,2017-10-10T03:00:00Z,25.5560,-81.1690,1.5,2.35,1111122 
ENP,ioos.station.NOAA.NDBC:LMRF1:1,2017-10-10T04:00:00Z,25.5560,-81.1690,1.5,2.27,1111122 
ENP,ioos.station.NOAA.NDBC:LMRF1:1,2017-10-10T06:00:00Z,25.5560,-81.1690,1.5,2.03,1111122 
ENP,ioos.station.NOAA.NDBC:LMRF1:1,2017-10-10T07:00:00Z,25.5560,-81.1690,1.5,1.91,1111122 
ENP,ioos.station.NOAA.NDBC:LMRF1:1,2017-10-10T08:00:00Z,25.5560,-81.1690,1.5,1.8,1111122 
ENP,ioos.station.NOAA.NDBC:LMRF1:1,2017-10-10T09:00:00Z,25.5560,-81.1690,1.5,1.78,1111122 
ENP,ioos.station.NOAA.NDBC:LMRF1:1,2017-10-10T10:00:00Z,25.5560,-81.1690,1.5,1.87,1111122 
ENP,ioos.station.NOAA.NDBC:LMRF1:1,2017-10-10T12:00:00Z,25.5560,-81.1690,1.5,1.98,1111122 
ENP,ioos.station.NOAA.NDBC:LMRF1:1,2017-10-10T13:00:00Z,25.5560,-81.1690,1.5,1.78,1111122 
ENP,ioos.station.NOAA.NDBC:LMRF1:1,2017-10-10T14:00:00Z,25.5560,-81.1690,1.5,1.63,1111122 
ENP,ioos.station.NOAA.NDBC:LMRF1:1,2017-10-10T15:00:00Z,25.5560,-81.1690,1.5,1.62,1111122 
ENP,ioos.station.NOAA.NDBC:LMRF1:1,2017-10-10T16:00:00Z,25.5560,-81.1690,1.5,1.56,1111122 
ENP,ioos.station.NOAA.NDBC:LMRF1:1,2017-10-10T17:00:00Z,25.5560,-81.1690,1.5,1.42,1111122 
ENP,ioos.station.NOAA.NDBC:LMRF1:1,2017-10-10T18:00:00Z,25.5560,-81.1690,1.5,1.34,1111122 
ENP,ioos.station.NOAA.NDBC:LMRF1:1,2017-10-10T19:00:00Z,25.5560,-81.1690,1.5,1.26,1111122 
ENP,ioos.station.NOAA.NDBC:LMRF1:1,2017-10-10T20:00:00Z,25.5560,-81.1690,1.5,1.22,1111122 
ENP,ioos.station.NOAA.NDBC:LMRF1:1,2017-10-10T21:00:00Z,25.5560,-81.1690,1.5,1.18,1111122 
ENP,ioos.station.NOAA.NDBC:LMRF1:1,2017-10-10T22:00:00Z,25.5560,-81.1690,1.5,1.13,1111122 
ENP,ioos.station.NOAA.NDBC:LMRF1:1,2017-10-10T23:00:00Z,25.5560,-81.1690,1.5,1.11,1111122 
ENP,ioos.station.NOAA.NDBC:LMRF1:1,2017-10-11T00:00:00Z,25.5560,-81.1690,1.5,1.13,1111122 
ENP,ioos.station.NOAA.NDBC:LMRF1:1,2017-10-11T01:00:00Z,25.5560,-81.1690,1.5,1.13,1111122 
ENP,ioos.station.NOAA.NDBC:LMRF1:1,2017-10-11T03:00:00Z,25.5560,-81.1690,1.5,1.05,1111122 
ENP,ioos.station.NOAA.NDBC:LMRF1:1,2017-10-11T04:00:00Z,25.5560,-81.1690,1.5,1.02,1111122 
ENP,ioos.station.NOAA.NDBC:LMRF1:1,2017-10-11T06:00:00Z,25.5560,-81.1690,1.5,1.03,1111122 
ENP,ioos.station.NOAA.NDBC:LMRF1:1,2017-10-11T07:00:00Z,25.5560,-81.1690,1.5,1.0,1111122 
ENP,ioos.station.NOAA.NDBC:LMRF1:1,2017-10-11T08:00:00Z,25.5560,-81.1690,1.5,0.97,1111122 
ENP,ioos.station.NOAA.NDBC:LMRF1:1,2017-10-11T09:00:00Z,25.5560,-81.1690,1.5,0.91,1111122 
ENP,ioos.station.NOAA.NDBC:LMRF1:1,2017-10-11T10:00:00Z,25.5560,-81.1690,1.5,0.93,1111122 
ENP,ioos.station.NOAA.NDBC:LMRF1:1,2017-10-11T14:00:00Z,25.5560,-81.1690,1.5,1.14,1111122 
ENP,ioos.station.NOAA.NDBC:LMRF1:1,2017-10-11T15:00:00Z,25.5560,-81.1690,1.5,0.9,1111122 
ENP,ioos.station.NOAA.NDBC:LMRF1:1,2017-10-11T16:00:00Z,25.5560,-81.1690,1.5,0.88,1111122 
ENP,ioos.station.NOAA.NDBC:LMRF1:1,2017-10-11T17:00:00Z,25.5560,-81.1690,1.5,0.88,1111122 
ENP,ioos.station.NOAA.NDBC:LMRF1:1,2017-10-11T18:00:00Z,25.5560,-81.1690,1.5,0.84,1111122 
ENP,ioos.station.NOAA.NDBC:LMRF1:1,2017-10-11T19:00:00Z,25.5560,-81.1690,1.5,0.82,1111122 
ENP,ioos.station.NOAA.NDBC:LMRF1:1,2017-10-11T20:00:00Z,25.5560,-81.1690,1.5,0.8,1111122 
ENP,ioos.station.NOAA.NDBC:LMRF1:1,2017-10-11T21:00:00Z,25.5560,-81.1690,1.5,0.77,1111122 
ENP,ioos.station.NOAA.NDBC:LMRF1:1,2017-10-11T22:00:00Z,25.5560,-81.1690,1.5,0.76,1111122 
ENP,ioos.station.NOAA.NDBC:LMRF1:1,2017-10-11T23:00:00Z,25.5560,-81.1690,1.5,0.74,1111122 
ENP,ioos.station.NOAA.NDBC:LMRF1:1,2017-10-12T00:00:00Z,25.5560,-81.1690,1.5,0.69,1111122 
ENP,ioos.station.NOAA.NDBC:LMRF1:1,2017-10-12T01:00:00Z,25.5560,-81.1690,1.5,0.7,1111122 
ENP,ioos.station.NOAA.NDBC:LMRF1:1,2017-10-12T03:00:00Z,25.5560,-81.1690,1.5,0.69,1111122 
ENP,ioos.station.NOAA.NDBC:LMRF1:1,2017-10-12T04:00:00Z,25.5560,-81.1690,1.5,0.67,1111122 
ENP,ioos.station.NOAA.NDBC:LMRF1:1,2017-10-12T05:00:00Z,25.5560,-81.1690,1.5,0.66,1111122 
ENP,ioos.station.NOAA.NDBC:LMRF1:1,2017-10-12T07:00:00Z,25.5560,-81.1690,1.5,0.7,1111122 
ENP,ioos.station.NOAA.NDBC:LMRF1:1,2017-10-12T08:00:00Z,25.5560,-81.1690,1.5,0.7,1111122 
ENP,ioos.station.NOAA.NDBC:LMRF1:1,2017-10-12T13:00:00Z,25.5560,-81.1690,1.5,5.74,1111122 
ENP,ioos.station.NOAA.NDBC:LMRF1:1,2017-10-12T14:00:00Z,25.5560,-81.1690,1.5,3.35,1111122 
ENP,ioos.station.NOAA.NDBC:LMRF1:1,2017-10-12T15:00:00Z,25.5560,-81.1690,1.5,1.57,1111122 
ENP,ioos.station.NOAA.NDBC:LMRF1:1,2017-10-12T16:00:00Z,25.5560,-81.1690,1.5,1.18,1111122 
ENP,ioos.station.NOAA.NDBC:LMRF1:1,2017-10-12T17:00:00Z,25.5560,-81.1690,1.5,0.75,1111122 
ENP,ioos.station.NOAA.NDBC:LMRF1:1,2017-10-12T18:00:00Z,25.5560,-81.1690,1.5,0.7,1111122 
ENP,ioos.station.NOAA.NDBC:LMRF1:1,2017-10-12T19:00:00Z,25.5560,-81.1690,1.5,0.69,1111122 
ENP,ioos.station.NOAA.NDBC:LMRF1:1,2017-10-12T20:00:00Z,25.5560,-81.1690,1.5,0.67,1111122 
ENP,ioos.station.NOAA.NDBC:LMRF1:1,2017-10-12T21:00:00Z,25.5560,-81.1690,1.5,0.67,1111122 
ENP,ioos.station.NOAA.NDBC:LMRF1:1,2017-10-12T22:00:00Z,25.5560,-81.1690,1.5,0.67,1111122 
ENP,ioos.station.NOAA.NDBC:LMRF1:1,2017-10-12T23:00:00Z,25.5560,-81.1690,1.5,0.66,1111122 
ENP,ioos.station.NOAA.NDBC:LMRF1:1,2017-10-13T00:00:00Z,25.5560,-81.1690,1.5,0.63,1111122 
ENP,ioos.station.NOAA.NDBC:LMRF1:1,2017-10-13T01:00:00Z,25.5560,-81.1690,1.5,0.6,1111122 
ENP,ioos.station.NOAA.NDBC:LMRF1:1,2017-10-13T03:00:00Z,25.5560,-81.1690,1.5,0.6,1111122 
ENP,ioos.station.NOAA.NDBC:LMRF1:1,2017-10-13T04:00:00Z,25.5560,-81.1690,1.5,0.6,1111122 
ENP,ioos.station.NOAA.NDBC:LMRF1:1,2017-10-13T05:00:00Z,25.5560,-81.1690,1.5,0.59,1111122 
ENP,ioos.station.NOAA.NDBC:LMRF1:1,2017-10-13T07:00:00Z,25.5560,-81.1690,1.5,0.57,1111122 
ENP,ioos.station.NOAA.NDBC:LMRF1:1,2017-10-13T08:00:00Z,25.5560,-81.1690,1.5,0.58,1111122 
ENP,ioos.station.NOAA.NDBC:LMRF1:1,2017-10-13T09:00:00Z,25.5560,-81.1690,1.5,0.59,1111122 
ENP,ioos.station.NOAA.NDBC:LMRF1:1,2017-10-13T10:00:00Z,25.5560,-81.1690,1.5,0.59,1111122 
ENP,ioos.station.NOAA.NDBC:LMRF1:1,2017-10-13T12:00:00Z,25.5560,-81.1690,1.5,0.57,1111122 
ENP,ioos.station.NOAA.NDBC:LMRF1:1,2017-10-13T13:00:00Z,25.5560,-81.1690,1.5,0.61,1111122 
ENP,ioos.station.NOAA.NDBC:LMRF1:1,2017-10-13T14:00:00Z,25.5560,-81.1690,1.5,1.68,1111122 
ENP,ioos.station.NOAA.NDBC:LMRF1:1,2017-10-13T15:00:00Z,25.5560,-81.1690,1.5,3.24,1111122 
ENP,ioos.station.NOAA.NDBC:LMRF1:1,2017-10-13T16:00:00Z,25.5560,-81.1690,1.5,1.45,1111122 
ENP,ioos.station.NOAA.NDBC:LMRF1:1,2017-10-13T17:00:00Z,25.5560,-81.1690,1.5,1.22,1111122 
ENP,ioos.station.NOAA.NDBC:LMRF1:1,2017-10-13T18:00:00Z,25.5560,-81.1690,1.5,0.81,1111122 
ENP,ioos.station.NOAA.NDBC:LMRF1:1,2017-10-13T19:00:00Z,25.5560,-81.1690,1.5,0.74,1111122 
ENP,ioos.station.NOAA.NDBC:LMRF1:1,2017-10-13T20:00:00Z,25.5560,-81.1690,1.5,0.69,1111122 
ENP,ioos.station.NOAA.NDBC:LMRF1:1,2017-10-13T21:00:00Z,25.5560,-81.1690,1.5,0.67,1111122 
ENP,ioos.station.NOAA.NDBC:LMRF1:1,2017-10-13T22:00:00Z,25.5560,-81.1690,1.5,0.66,1111122 
ENP,ioos.station.NOAA.NDBC:LMRF1:1,2017-10-13T23:00:00Z,25.5560,-81.1690,1.5,0.65,1111122 
ENP,ioos.station.NOAA.NDBC:LMRF1:1,2017-10-14T00:00:00Z,25.5560,-81.1690,1.5,0.63,1111122 
ENP,ioos.station.NOAA.NDBC:LMRF1:1,2017-10-14T01:00:00Z,25.5560,-81.1690,1.5,0.59,1111122 
ENP,ioos.station.NOAA.NDBC:LMRF1:1,2017-10-14T02:00:00Z,25.5560,-81.1690,1.5,0.6,1111122 
ENP,ioos.station.NOAA.NDBC:LMRF1:1,2017-10-14T04:00:00Z,25.5560,-81.1690,1.5,1.08,1111122 
ENP,ioos.station.NOAA.NDBC:LMRF1:1,2017-10-14T06:00:00Z,25.5560,-81.1690,1.5,0.87,1111122 
ENP,ioos.station.NOAA.NDBC:LMRF1:1,2017-10-14T07:00:00Z,25.5560,-81.1690,1.5,0.62,1111122 
ENP,ioos.station.NOAA.NDBC:LMRF1:1,2017-10-14T08:00:00Z,25.5560,-81.1690,1.5,0.57,1111122 
ENP,ioos.station.NOAA.NDBC:LMRF1:1,2017-10-14T09:00:00Z,25.5560,-81.1690,1.5,0.56,1111122 
ENP,ioos.station.NOAA.NDBC:LMRF1:1,2017-10-14T11:00:00Z,25.5560,-81.1690,1.5,0.57,1111122 
ENP,ioos.station.NOAA.NDBC:LMRF1:1,2017-10-14T12:00:00Z,25.5560,-81.1690,1.5,0.57,1111122 
ENP,ioos.station.NOAA.NDBC:LMRF1:1,2017-10-14T13:00:00Z,25.5560,-81.1690,1.5,0.54,1111122 
ENP,ioos.station.NOAA.NDBC:LMRF1:1,2017-10-14T14:00:00Z,25.5560,-81.1690,1.5,1.47,1111122 
ENP,ioos.station.NOAA.NDBC:LMRF1:1,2017-10-14T15:00:00Z,25.5560,-81.1690,1.5,7.92,1111122 
ENP,ioos.station.NOAA.NDBC:LMRF1:1,2017-10-14T16:00:00Z,25.5560,-81.1690,1.5,10.87,1111122 